Location: Asheville, NC
(35.6000°N, 82.5500°W)
Time: 03:14:32
(UTC-04:00)

Vanguard 2 - Pass Details

Date: 15 February 2018
Orbit: 552 x 2940 km, 32.9° (Epoch: 22 May)

Event Time Altitude Azimuth Distance (km) Brightness Sun altitude
Rises 18:27:08 0° 230° (SW) 5,340 13.1 -3.8°
Reaches altitude 10° 18:31:34 10° 223° (SW) 3,920 12.1 -4.7°
Maximum altitude 18:40:00 36° 162° (SSE) 1,741 9.3 -6.3°
Drops below altitude 10° 18:45:25 10° 97° (E) 2,504 9.5 -7.4°
Enters shadow 18:45:52 - 94° (E) 2,640 9.6 -7.5°
Sets 18:47:39 0° 88° (E) 3,232 - -7.9°
